Charleston, SC

9:56 AM EDT on April 30, 2017 (GMT -0400)
Charleston Executive

Weather History for KJZI - November, 2012

Change the Weather History Date:

Wednesday, November 7, 2012

  Actual Average (KCHS) Record (KCHS)
Temperature  
Mean Temperature 48 °F -  
Max Temperature 57 °F 69 °F 84 °F (1986)
Min Temperature 39 °F 46 °F 26 °F (1939)
Degree Days  
Heating Degree Days 17    
Moisture  
Dew Point 38 °F    
Average Humidity 76    
Maximum Humidity 93    
Minimum Humidity 48    
Precipitation  
Precipitation 0.00 in - - ()
Sea Level Pressure  
Sea Level Pressure 29.91 in    
Wind  
Wind Speed 7 mph (NW)    
Max Wind Speed 12 mph    
Max Gust Speed 17 mph    
Visibility 9 miles    
Events      
Averages and records for this station are not official NWS values.
T = Trace of Precipitation, MM = Missing Value Source: NWS Daily Summary

Daily Weather History Graph

Daily Weather History Graph

Search for Another Location

Airport or City:

Trip Planner

Search our weather history database for the weather conditions in past years. The results will help you decide how hot, cold, wet, or windy it might be!

Date:

Astronomy

Nov. 07, 2012 Rise Set
Actual Time 6:43 AM EST 5:23 PM EST
Civil Twilight 6:17 AM EST 5:49 PM EST
Nautical Twilight 5:48 AM EST 6:18 PM EST
Astronomical Twilight 5:19 AM EST 6:47 PM EST
Moon No Moon Rise 1:11 PM EST (11/7)
Length of Visible Light 11h 32m
Length of Day
10h 40m
Last Quarter, 43% of the Moon is Illuminated
Nov 7
Last Quarter
Nov 13
New
Nov 20
First Quarter
Nov 28
Full
Dec 6
Last Quarter

Hourly Weather History & Observations

Time (EST) Temp. Windchill Dew Point Humidity Pressure Visibility Wind Dir Wind Speed Gust Speed Precip Events Conditions
12:15 AM 44.6 °F 40.2 °F 39.2 °F 81% 29.90 in 10.0 mi North 8.1 mph - 0.00 in   Clear
12:35 AM 44.6 °F 39.7 °F 39.2 °F 81% 29.89 in 10.0 mi North 9.2 mph - 0.00 in   Clear
12:55 AM 44.6 °F 39.7 °F 39.2 °F 81% 29.89 in 10.0 mi North 9.2 mph - 0.00 in   Clear
1:15 AM 44.6 °F 39.7 °F 39.2 °F 81% 29.89 in 9.0 mi North 9.2 mph - 0.00 in   Clear
1:35 AM 42.8 °F 38.6 °F 37.4 °F 81% 29.90 in 9.0 mi NNW 6.9 mph - 0.00 in   Clear
1:55 AM 42.8 °F 38.0 °F 37.4 °F 81% 29.90 in 10.0 mi North 8.1 mph - 0.00 in   Clear
2:15 AM 42.8 °F 37.5 °F 37.4 °F 81% 29.90 in 10.0 mi North 9.2 mph - 0.00 in   Clear
2:35 AM 42.8 °F 39.3 °F 37.4 °F 81% 29.90 in 10.0 mi NNW 5.8 mph - 0.00 in   Clear
2:55 AM 42.8 °F 39.3 °F 37.4 °F 81% 29.89 in 10.0 mi NNW 5.8 mph - 0.00 in   Clear
3:15 AM 42.8 °F 39.3 °F 37.4 °F 81% 29.89 in 10.0 mi NNW 5.8 mph - 0.00 in   Clear
3:35 AM 42.8 °F 39.3 °F 37.4 °F 81% 29.88 in 10.0 mi NNW 5.8 mph - 0.00 in   Clear
3:55 AM 42.8 °F 40.1 °F 37.4 °F 81% 29.88 in 10.0 mi NNW 4.6 mph - 0.00 in   Clear
4:15 AM 41.0 °F 37.1 °F 37.4 °F 87% 29.89 in 9.0 mi NW 5.8 mph - 0.00 in   Clear
4:55 AM 39.2 °F - 37.4 °F 93% 29.89 in 8.0 mi Calm Calm - 0.00 in   Clear
5:15 AM 39.2 °F 35.9 °F 37.4 °F 93% 29.90 in 8.0 mi NW 4.6 mph - 0.00 in   Clear
5:35 AM 39.2 °F - 37.4 °F 93% 29.90 in 9.0 mi Calm Calm - 0.00 in   Scattered Clouds
5:55 AM 39.2 °F 35.9 °F 37.4 °F 93% 29.90 in 8.0 mi WNW 4.6 mph - 0.00 in   Overcast
6:15 AM 39.2 °F 34.2 °F 37.4 °F 93% 29.91 in 7.0 mi WNW 6.9 mph - 0.00 in   Overcast
6:35 AM 41.0 °F 38.0 °F 37.4 °F 87% 29.91 in 7.0 mi NW 4.6 mph - 0.00 in   Overcast
6:55 AM 41.0 °F 39.0 °F 37.4 °F 87% 29.91 in 7.0 mi NW 3.5 mph - 0.00 in   Overcast
7:15 AM 41.0 °F 37.1 °F 37.4 °F 87% 29.92 in 7.0 mi NNW 5.8 mph - 0.00 in   Overcast
7:35 AM 42.8 °F 39.3 °F 37.4 °F 81% 29.92 in 8.0 mi NW 5.8 mph - 0.00 in   Overcast
7:55 AM 42.8 °F 40.1 °F 37.4 °F 81% 29.92 in 7.0 mi NNW 4.6 mph - 0.00 in   Overcast
8:15 AM 42.8 °F 40.1 °F 37.4 °F 81% 29.92 in 8.0 mi North 4.6 mph - 0.00 in   Overcast
8:35 AM 44.6 °F 41.4 °F 37.4 °F 76% 29.92 in 7.0 mi NNW 5.8 mph - 0.00 in   Overcast
8:55 AM 44.6 °F 41.4 °F 37.4 °F 76% 29.92 in 8.0 mi NW 5.8 mph - 0.00 in   Overcast
9:55 AM 46.4 °F 42.9 °F 39.2 °F 76% 29.93 in 8.0 mi WNW 6.9 mph - 0.00 in   Overcast
10:15 AM 46.4 °F 42.9 °F 39.2 °F 76% 29.93 in 8.0 mi WNW 6.9 mph - 0.00 in   Mostly Cloudy
10:35 AM 50.0 °F - 39.2 °F 66% 29.93 in 8.0 mi WNW 6.9 mph - 0.00 in   Mostly Cloudy
11:15 AM 51.8 °F - 39.2 °F 62% 29.92 in 10.0 mi NW 8.1 mph - 0.00 in   Mostly Cloudy
11:35 AM 51.8 °F - 39.2 °F 62% 29.91 in 10.0 mi NW 5.8 mph - 0.00 in   Mostly Cloudy
11:55 AM 51.8 °F - 37.4 °F 58% 29.90 in 10.0 mi NW 6.9 mph - 0.00 in   Mostly Cloudy
12:15 PM 51.8 °F - 37.4 °F 58% 29.89 in 10.0 mi NW 6.9 mph - 0.00 in   Mostly Cloudy
12:55 PM 53.6 °F - 37.4 °F 54% 29.88 in 10.0 mi NW 5.8 mph - 0.00 in   Overcast
1:15 PM 53.6 °F - 37.4 °F 54% 29.88 in 10.0 mi NW 8.1 mph - 0.00 in   Mostly Cloudy
1:35 PM 57.2 °F - 37.4 °F 48% 29.87 in 10.0 mi WNW 10.4 mph 17.3 mph 0.00 in   Scattered Clouds
1:55 PM 55.4 °F - 37.4 °F 51% 29.87 in 10.0 mi WNW 10.4 mph 16.1 mph 0.00 in   Scattered Clouds
2:35 PM 55.4 °F - 37.4 °F 51% 29.86 in 10.0 mi NW 11.5 mph - 0.00 in   Partly Cloudy
2:55 PM 55.4 °F - 37.4 °F 51% 29.86 in 10.0 mi WNW 9.2 mph - 0.00 in   Mostly Cloudy
3:15 PM 57.2 °F - 37.4 °F 48% 29.86 in 10.0 mi NNW 8.1 mph - 0.00 in   Mostly Cloudy
3:55 PM 55.4 °F - 37.4 °F 51% 29.86 in 10.0 mi West 10.4 mph - 0.00 in   Clear
4:15 PM 55.4 °F - 37.4 °F 51% 29.87 in 10.0 mi NW 8.1 mph - 0.00 in   Clear
4:35 PM 53.6 °F - 37.4 °F 54% 29.88 in 10.0 mi NW 6.9 mph - 0.00 in   Clear
4:55 PM 53.6 °F - 37.4 °F 54% 29.88 in 10.0 mi NW 5.8 mph - 0.00 in   Clear
5:15 PM 50.0 °F - 37.4 °F 62% 29.88 in 10.0 mi Calm Calm - 0.00 in   Clear
5:35 PM 46.4 °F - 39.2 °F 76% 29.89 in 10.0 mi Calm Calm - 0.00 in   Clear
5:55 PM 46.4 °F 42.4 °F 39.2 °F 76% 29.90 in 10.0 mi WNW 8.1 mph - 0.00 in   Clear
6:35 PM 46.4 °F 42.9 °F 39.2 °F 76% 29.92 in 10.0 mi West 6.9 mph - 0.00 in   Clear
6:55 PM 44.6 °F 40.2 °F 41.0 °F 87% 29.93 in 10.0 mi WNW 8.1 mph - 0.00 in   Clear
7:15 PM 46.4 °F 42.4 °F 41.0 °F 81% 29.93 in 10.0 mi WNW 8.1 mph - 0.00 in   Clear
7:55 PM 44.6 °F 40.7 °F 41.0 °F 87% 29.95 in 10.0 mi WNW 6.9 mph - 0.00 in   Partly Cloudy
8:15 PM 44.6 °F 40.7 °F 41.0 °F 87% 29.95 in 10.0 mi WNW 6.9 mph - 0.00 in   Scattered Clouds
8:35 PM 44.6 °F 40.7 °F 41.0 °F 87% 29.96 in 10.0 mi WNW 6.9 mph - 0.00 in   Partly Cloudy
8:55 PM 44.6 °F 40.7 °F 41.0 °F 87% 29.97 in 8.0 mi WNW 6.9 mph - 0.00 in   Clear
9:15 PM 42.8 °F 38.6 °F 41.0 °F 93% 29.97 in 8.0 mi NW 6.9 mph - 0.00 in   Scattered Clouds
9:35 PM 44.6 °F 40.7 °F 41.0 °F 87% 29.97 in 7.0 mi WNW 6.9 mph - 0.00 in   Overcast
9:55 PM 44.6 °F 42.2 °F 41.0 °F 87% 29.98 in 7.0 mi WNW 4.6 mph - 0.00 in   Overcast
10:15 PM 42.8 °F 38.6 °F 39.2 °F 87% 29.98 in 6.0 mi WNW 6.9 mph - 0.00 in   Partly Cloudy
10:35 PM 42.8 °F 39.3 °F 39.2 °F 87% 29.98 in 5.0 mi WNW 5.8 mph - 0.00 in   Clear
10:55 PM 42.8 °F 40.1 °F 39.2 °F 87% 29.98 in 5.0 mi WNW 4.6 mph - 0.00 in   Clear
11:15 PM 41.0 °F 37.1 °F 39.2 °F 93% 29.98 in 5.0 mi WNW 5.8 mph - 0.00 in   Clear
11:55 PM 41.0 °F 38.0 °F 39.2 °F 93% 29.98 in 4.0 mi WNW 4.6 mph - 0.00 in   Clear